Regional Weather Roundup
Issued by NWS Sioux Falls, SD

Home | Current Version | Previous Version | Text Only | Print | Product List | Glossary Off
Versions: 1 2 3 4 5 6 7 8 9 10 11 12 13 14 15 16 17 18 19 20 21 22 23 24 25 26 27 28 29 30 31 32 33 34 35 36 37 38 39 40 41 42 43 44 45 46 47 48 49 50

000
ASUS43 KFSD 060310
RWRFSD

WEATHER ROUNDUP FOR SE SOUTH DAKOTA/SW MINNESOTA/NW IOWA
NATIONAL WEATHER SERVICE SIOUX FALLS SD
900 PM CST THU MAR 05 2015

NOTE: "FAIR" INDICATES FEW OR NO CLOUDS BELOW 12,000 FEET WITH NO
SIGNIFICANT WEATHER AND OR OBSTRUCTIONS TO VISIBILITY.


SDZ038>040-050-052>070-060400-
SOUTHEAST SOUTH DAKOTA

CITY           SKY/WX    TMP DP  RH WIND       PRES   REMARKS
CHAMBERLAIN    CLEAR     22  13  67 SW3       30.12F
HURON          CLEAR     25   7  46 S9        30.14F WCI  15
MADISON        FAIR      19   7  58 S12       30.17F WCI   7
MITCHELL       CLEAR     25   7  46 SE10      30.17F WCI  15
SIOUX FALLS    CLEAR     24   7  48 S14       30.21F WCI  12
WINNER         FAIR      33  16  49 SW9       30.12F WCI  25
YANKTON        PTCLDY    25   5  42 SE5       30.23F WCI  19
$$

MNZ071-072-080-081-089-090-097-098-060400-
SOUTHWEST MINNESOTA

CITY           SKY/WX    TMP DP  RH WIND       PRES   REMARKS
FAIRMONT       CLEAR     12   5  73 S14       30.31F WCI  -3
JACKSON        CLEAR     18   5  57 S14       30.28F WCI   4
LUVERNE        CLEAR     19   9  63 S8        30.24F WCI   9
MARSHALL       CLEAR     18   5  57 S15       30.23F WCI   3
MONTEVIDEO     PTCLDY    16   7  67 S9        30.24F WCI   4
PIPESTONE      CLEAR     19   7  58 S15       30.20F WCI   5
REDWOOD FALLS  CLEAR     14   5  67 S15       30.27F WCI  -1
TRACY          CLEAR     19   8  61 S18G26    30.22F WCI   3
WINDOM         CLEAR     16   7  67 S14       30.26F WCI   1
WORTHINGTON    CLEAR     16   5  62 S20       30.26F WCI  -1
$$

IAZ001>003-012>014-020>022-031-032-NEZ013-014-SDZ071-060400-
NORTHWEST IOWA

CITY           SKY/WX    TMP DP  RH WIND       PRES   REMARKS
CHEROKEE       FAIR      17   7  65 S10       30.32F WCI   4
DENISON        CLEAR     19   5  53 S15       30.33F WCI   5
ESTHERVILLE    CLEAR     13   5  70 S13       30.31F WCI  -2
LE MARS        PTCLDY    21   9  58 S12       30.29F WCI   9
ORANGE CITY    CLEAR     19   7  58 S9        30.27F WCI   9
SHELDON        CLEAR     18   5  57 S16       30.26F WCI   3
SIOUX CITY     CLEAR     23   7  50 SE12      30.31F WCI  12
SPENCER        CLEAR     16   5  62 S14       30.31F WCI   2
STORM LAKE     CLEAR     14   5  67 S14       30.32F WCI  -1
$$

ABBREVIATIONS USED IN REMARKS
   TC - TEMPERATURE IN CELSIUS
  WCI - WIND CHILL INDEX
   HX - HEAT INDEX
  VSB - VISIBILITY




USA.gov is the U.S. government's official web portal to all federal, state and local government web resources and services.